Total_Precipitation_Accumulation
0.00 0.00 0.00 0.00 0.00 0.00 0.00 0.00 0.00 0.00 0.00 0.00 0.00 0.00 0.00 0.00 0.00 0.00 0.00 0.00 0.00 0.01 0.03 0.05 0.07 0.09 0.11 0.11 0.12 0.13 0.15 0.21 0.20 0.07 0.05 0.06 0.07 0.05 0.04 0.09 0.09 0.09 0.09
0.00 0.00 0.00 0.00 0.00 0.00 0.00 0.00 0.00 0.00 0.00 0.00 0.00 0.00 0.00 0.00 0.00 0.00 0.00 0.00 0.00 0.00 0.01 0.02 0.04 0.06 0.08 0.11 0.13 0.13 0.13 0.15 0.21 0.14 0.05 0.05 0.06 0.07 0.08 0.10 0.11 0.13 0.12
0.00 0.00 0.00 0.00 0.00 0.00 0.00 0.00 0.00 0.00 0.00 0.00 0.00 0.00 0.00 0.00 0.00 0.00 0.00 0.00 0.00 0.00 0.01 0.01 0.01 0.02 0.02 0.05 0.08 0.11 0.13 0.16 0.22 0.24 0.14 0.11 0.11 0.10 0.12 0.11 0.13 0.15 0.15
0.00 0.00 0.00 0.00 0.00 0.00 0.00 0.00 0.00 0.00 0.00 0.00 0.00 0.00 0.00 0.00 0.00 0.00 0.00 0.00 0.00 0.00 0.00 0.01 0.01 0.01 0.02 0.03 0.06 0.09 0.14 0.17 0.21 0.24 0.20 0.15 0.14 0.13 0.14 0.13 0.14 0.15 0.17
0.00 0.00 0.00 0.00 0.00 0.00 0.00 0.00 0.00 0.00 0.00 0.00 0.00 0.00 0.00 0.00 0.00 0.00 0.00 0.00 0.00 0.00 0.00 0.00 0.00 0.00 0.01 0.03 0.06 0.08 0.12 0.16 0.19 0.23 0.23 0.19 0.17 0.17 0.15 0.17 0.22 0.23 0.22
0.00 0.00 0.00 0.00 0.00 0.00 0.00 0.00 0.00 0.00 0.00 0.00 0.00 0.00 0.00 0.00 0.00 0.00 0.00 0.00 0.00 0.00 0.00 0.00 0.00 0.00 0.01 0.03 0.05 0.07 0.11 0.15 0.18 0.21 0.23 0.24 0.21 0.24 0.28 0.34 0.39 0.41 0.37
0.00 0.00 0.00 0.00 0.00 0.00 0.00 0.00 0.00 0.00 0.00 0.00 0.00 0.00 0.00 0.00 0.00 0.00 0.00 0.00 0.00 0.00 0.00 0.00 0.00 0.01 0.03 0.03 0.04 0.05 0.05 0.08 0.13 0.17 0.18 0.17 0.18 0.20 0.28 0.33 0.37 0.41 0.40
0.00 0.00 0.00 0.00 0.00 0.00 0.00 0.00 0.00 0.00 0.00 0.00 0.00 0.00 0.00 0.00 0.00 0.00 0.00 0.00 0.00 0.00 0.00 0.00 0.01 0.01 0.02 0.04 0.07 0.07 0.04 0.02 0.04 0.07 0.09 0.10 0.14 0.19 0.26 0.34 0.43 0.52 0.48
0.00 0.00 0.00 0.00 0.00 0.00 0.00 0.00 0.00 0.00 0.00 0.00 0.00 0.00 0.00 0.00 0.00 0.00 0.00 0.00 0.00 0.00 0.00 0.01 0.02 0.01 0.02 0.06 0.09 0.07 0.04 0.01 0.02 0.04 0.07 0.09 0.11 0.15 0.22 0.35 0.49 0.57 0.51
0.00 0.00 0.00 0.00 0.00 0.00 0.00 0.00 0.00 0.00 0.00 0.00 0.00 0.00 0.00 0.00 0.00 0.00 0.01 0.01 0.01 0.01 0.01 0.01 0.01 0.02 0.04 0.07 0.08 0.07 0.05 0.03 0.03 0.04 0.04 0.04 0.04 0.06 0.15 0.27 0.47 0.63 0.55
0.00 0.00 0.00 0.00 0.00 0.00 0.00 0.00 0.00 0.00 0.00 0.00 0.00 0.00 0.00 0.00 0.00 0.00 0.01 0.02 0.03 0.04 0.04 0.02 0.01 0.03 0.06 0.06 0.05 0.04 0.06 0.09 0.07 0.04 0.04 0.04 0.04 0.04 0.07 0.14 0.28 0.53 0.65
0.00 0.00 0.00 0.00 0.00 0.00 0.00 0.00 0.00 0.00 0.00 0.00 0.00 0.00 0.00 0.00 0.00 0.00 0.02 0.04 0.06 0.06 0.05 0.03 0.03 0.05 0.05 0.03 0.03 0.04 0.06 0.07 0.04 0.04 0.05 0.05 0.07 0.10 0.14 0.19 0.24 0.34 0.49
0.00 0.00 0.00 0.00 0.00 0.00 0.00 0.00 0.00 0.00 0.00 0.00 0.00 0.00 0.00 0.00 0.00 0.00 0.02 0.05 0.07 0.07 0.05 0.06 0.05 0.04 0.02 0.01 0.02 0.04 0.04 0.04 0.07 0.11 0.10 0.10 0.13 0.20 0.25 0.28 0.29 0.32 0.38
0.00 0.00 0.00 0.00 0.00 0.00 0.00 0.00 0.00 0.00 0.00 0.00 0.00 0.00 0.00 0.00 0.00 0.01 0.03 0.05 0.05 0.06 0.07 0.06 0.03 0.02 0.02 0.02 0.02 0.02 0.02 0.06 0.13 0.16 0.14 0.13 0.15 0.22 0.26 0.33 0.40 0.43 0.48
0.00 0.00 0.00 0.00 0.00 0.00 0.00 0.00 0.00 0.00 0.00 0.00 0.01 0.01 0.02 0.02 0.03 0.07 0.09 0.07 0.09 0.09 0.07 0.03 0.01 0.01 0.01 0.02 0.01 0.01 0.02 0.05 0.09 0.11 0.14 0.16 0.18 0.28 0.38 0.47 0.55 0.57 0.57
0.00 0.00 0.00 0.00 0.00 0.00 0.00 0.00 0.00 0.00 0.00 0.00 0.01 0.02 0.02 0.03 0.05 0.07 0.08 0.10 0.10 0.06 0.04 0.02 0.02 0.02 0.03 0.03 0.03 0.03 0.03 0.05 0.10 0.16 0.18 0.20 0.26 0.35 0.47 0.57 0.65 0.65 0.57
0.00 0.00 0.00 0.00 0.00 0.00 0.00 0.00 0.00 0.00 0.00 0.00 0.00 0.01 0.02 0.04 0.04 0.05 0.08 0.09 0.04 0.02 0.02 0.03 0.03 0.03 0.03 0.04 0.05 0.07 0.08 0.09 0.17 0.26 0.31 0.34 0.37 0.44 0.54 0.61 0.64 0.58 0.47
0.00 0.00 0.00 0.00 0.00 0.00 0.00 0.00 0.00 0.00 0.00 0.00 0.00 0.00 0.02 0.02 0.03 0.05 0.07 0.04 0.01 0.01 0.03 0.04 0.03 0.03 0.04 0.05 0.07 0.11 0.15 0.18 0.25 0.34 0.40 0.43 0.45 0.51 0.59 0.60 0.54 0.44 0.33
0.00 0.00 0.00 0.00 0.00 0.00 0.00 0.00 0.00 0.00 0.01 0.00 0.00 0.00 0.00 0.01 0.03 0.04 0.03 0.01 0.02 0.03 0.03 0.03 0.03 0.03 0.04 0.05 0.08 0.14 0.22 0.31 0.38 0.46 0.50 0.52 0.53 0.57 0.60 0.54 0.40 0.27 0.16
0.00 0.00 0.00 0.00 0.00 0.00 0.00 0.00 0.00 0.01 0.01 0.01 0.01 0.00 0.00 0.02 0.03 0.01 0.00 0.01 0.02 0.03 0.03 0.03 0.03 0.03 0.04 0.06 0.10 0.18 0.27 0.35 0.42 0.48 0.53 0.53 0.53 0.52 0.45 0.32 0.16 0.07 0.03
0.00 0.00 0.00 0.00 0.00 0.00 0.00 0.01 0.01 0.02 0.02 0.02 0.01 0.01 0.03 0.04 0.02 0.01 0.01 0.02 0.02 0.03 0.03 0.04 0.04 0.03 0.04 0.08 0.14 0.21 0.32 0.40 0.44 0.49 0.51 0.48 0.42 0.31 0.17 0.07 0.02 0.01 0.01
0.00 0.00 0.00 0.00 0.00 0.00 0.01 0.01 0.02 0.02 0.02 0.02 0.01 0.01 0.02 0.02 0.01 0.01 0.02 0.01 0.01 0.01 0.02 0.03 0.04 0.03 0.06 0.15 0.27 0.34 0.38 0.42 0.44 0.47 0.44 0.34 0.22 0.10 0.02 0.01 0.00 0.01 0.01
0.00 0.00 0.00 0.00 0.01 0.01 0.01 0.01 0.01 0.01 0.02 0.02 0.02 0.02 0.01 0.01 0.02 0.02 0.01 0.01 0.01 0.01 0.01 0.02 0.03 0.03 0.06 0.15 0.30 0.46 0.52 0.48 0.46 0.43 0.30 0.17 0.07 0.02 0.00 0.00 0.00 0.01 0.01
0.00 0.00 0.01 0.01 0.01 0.01 0.01 0.01 0.01 0.01 0.02 0.02 0.01 0.01 0.02 0.02 0.02 0.01 0.01 0.01 0.01 0.01 0.01 0.01 0.02 0.04 0.09 0.19 0.31 0.42 0.48 0.48 0.42 0.28 0.14 0.06 0.02 0.01 0.01 0.01 0.01 0.01 0.01
0.00 0.01 0.01 0.01 0.01 0.01 0.01 0.01 0.01 0.01 0.01 0.01 0.01 0.02 0.02 0.02 0.02 0.01 0.01 0.01 0.01 0.01 0.01 0.01 0.03 0.07 0.13 0.23 0.35 0.43 0.45 0.41 0.28 0.13 0.05 0.02 0.01 0.02 0.02 0.01 0.01 0.01 0.01
0.00 0.00 0.00 0.00 0.00 0.00 0.00 0.01 0.01 0.01 0.01 0.02 0.02 0.02 0.02 0.02 0.02 0.01 0.01 0.01 0.01 0.01 0.01 0.01 0.03 0.08 0.16 0.26 0.34 0.40 0.39 0.29 0.14 0.05 0.02 0.01 0.01 0.01 0.01 0.01 0.01 0.01 0.01